Regional Weather Roundup
Issued by NWS

Home | Current Version | Previous Version | Graphics & Text | Print | Product List | Glossary On
Versions: 1 2 3 4 5 6 7 8 9 10 11 12 13 14 15 16 17 18 19 20 21 22 23 24 25 26 27 28 29 30 31 32 33 34 35 36 37 38 39 40 41 42 43 44 45 46 47 48 49 50
000
ASUS43 KDMX 251707
RWRIA

WEATHER ROUNDUP FOR IOWA
NATIONAL WEATHER SERVICE DES MOINES IA
1200 PM CDT SAT APR 25 2015

NOTE: "FAIR" INDICATES FEW OR NO CLOUDS BELOW 12,000 FEET WITH NO
SIGNIFICANT WEATHER AND/OR OBSTRUCTIONS TO VISIBILITY.

* - THESE STATIONS ARE NOT NWS STATIONS...THUS NOT UNDER NWS
QUALITY CONTROL.  THEY ALSO DO NOT REPORT WEATHER SUCH
AS PRECIPITATION OR FOG.

IAZ001>003-012>014-020>022-031>034-043>046-251800-
   NORTHWEST IOWA

CITY           SKY/WX    TMP DP  RH WIND       PRES   REMARKS
CARROLL *      CLOUDY    46  45  93 E18G24    29.68R
CHEROKEE *     CLOUDY    50  43  76 E14G24    29.72R
DENISON *      CLOUDY    46  46 100 NE16G26   29.67R FOG
LE MARS *      CLOUDY    52  43  71 NE15G21   29.73R
ORANGE CITY *  SUNNY     48  41  76 E14G20    29.73R
SHELDON *      MOSUNNY   50  41  71 E18       29.73R
SIOUX CITY     CLOUDY    51  43  74 E14G22    29.71R
SPENCER        CLOUDY    49  40  71 NE22      29.75R
STORM LAKE *   PTSUNNY   46  43  87 NE18G24   29.72R
$$

IAZ055>058-069>071-079>083-090>094-251800-
   SOUTHWEST IOWA

CITY           SKY/WX    TMP DP  RH WIND       PRES   REMARKS
ATLANTIC *     CLOUDY    46  46 100 NE16G22   29.64R
AUDUBON *      MOSUNNY   46  43  87 NE17      29.66R FOG
CLARINDA *     CLOUDY    50  48  93 NE13      29.61R
COUNCIL BLFS * CLOUDY    46  46 100 NE20      29.64R
CRESTON *      CLOUDY    45  45 100 NE20G28   29.60R FOG
HARLAN  *      CLOUDY    46  46 100 NE16      29.69R FOG
LAMONI         CLOUDY    47  45  93 NE17      29.57R FOG
RED OAK *      CLOUDY    48  48 100 NE20      29.61R
SHENANDOAH *   CLOUDY    50  50 100 NE16G22   29.60R FOG
$$

IAZ047>049-059>061-072>074-084-251800-
   CENTRAL IOWA

CITY           SKY/WX    TMP DP  RH WIND       PRES   REMARKS
AMES           CLOUDY    47  42  83 NE16G28   29.67R
ANKENY *       CLOUDY    46  45  93 E14G24    29.65R
CHARITON *     CLOUDY    46  45  93 NE18G24   29.59R
DES MOINES     CLOUDY    48  44  86 NE14G23   29.63S
GRINNELL*      DRIZZLE   45  43  93 NE14      29.65R
KNOXVILLE *    CLOUDY    46  43  87 NE15G23   29.60S
MARSHALLTOWN   CLOUDY    48  44  86 NE29G37   29.65S
PELLA *        CLOUDY    45  45 100 NE9       29.64S
PERRY *        CLOUDY    46  43  87 E17       29.66R
$$

IAZ004>006-015-016-023>025-035-036-251800-
   NORTH CENTRAL IOWA

CITY           SKY/WX    TMP DP  RH WIND       PRES   REMARKS
ALGONA *       PTSUNNY   50  43  76 NE21G26   29.74S
CLARION *      MOSUNNY   50  45  81 E24G30    29.71S
ESTHERVILLE    CLOUDY    50  41  71 E17G26    29.76R
FORT DODGE *   CLOUDY    48  39  71 E20G25    29.71R
MASON CITY     PTSUNNY   50  40  68 E21G28    29.75F
FOREST CITY *  SUNNY     50  37  62 E17       29.75R
IOWA FALLS *   CLOUDY    46  39  76 E18G29    29.71R
$$

IAZ007>011-017>019-026>030-037>042-050>054-066-251800-
   NORTHEAST IOWA

CITY           SKY/WX    TMP DP  RH WIND       PRES   REMARKS
CEDAR RAPIDS   CLOUDY    46  46 100 NE24G36   29.62F
CHARLES CITY * CLOUDY    50  41  71 E22G29    29.76R
CLINTON *      CLOUDY    46  43  87 E20       29.75F
DECORAH *      CLOUDY    48  37  66 E18G25    29.76F
DUBUQUE        CLOUDY    46  38  73 E18G29    29.76R
MONTICELLO *   SUNNY     46  46 100 E16G23    29.72F FOG
OELWEIN *      CLOUDY    46  39  76 E18G25    29.74R
WATERLOO       CLOUDY    47  39  74 E23       29.72S
$$

IAZ064-065-067-068-078-251800-
   EAST CENTRAL IOWA

CITY           SKY/WX    TMP DP  RH WIND       PRES   REMARKS
DAVENPORT      LGT RAIN  45  42  89 E29G37    29.65F
IOWA CITY      CLOUDY    47  44  90 NE21G30   29.62F
MT. PLEASANT * CLOUDY    48  48 100 SE6       29.60S FOG
MUSCATINE *    CLOUDY    48  45  87 NE23      29.61F
QUAD CITIES    CLOUDY    47  43  86 E25G33    29.64F
$$

IAZ062-063-075>077-085>089-095>099-251800-
   SOUTHEAST IOWA

CITY           SKY/WX    TMP DP  RH WIND       PRES   REMARKS
BURLINGTON     CLOUDY    49  49 100 E10       29.60R
FAIRFIELD *    CLOUDY    46  45  93 NE15G22   29.60S
FORT MADISON * CLOUDY    50  48  93 E10G16    29.59R
KEOKUK *       CLOUDY    54  52  94 E12G18    29.55S
OSKALOOSA *    CLOUDY    46  43  87 E16G24    29.62S
CENTERVILLE *  CLOUDY    48  48 100 NE10G21   29.57R
OTTUMWA        CLOUDY    47  45  93 NE14      29.60S
WASHINGTON *   CLOUDY    48  48 100 E21G28    29.61R
$$

ABBREVIATIONS USED IN REMARKS
   TC - TEMPERATURES IN CELSIUS
  WCI - WIND CHILL INDEX
   HX - HEAT INDEX
  VSB - VISIBILITY
$$



USA.gov is the U.S. government's official web portal to all federal, state and local government web resources and services.